Regional Weather Roundup
Issued by NWS

Home | Current Version | Previous Version | Text Only | Print | Product List | Glossary Off
Versions: 1 2 3 4 5 6 7 8 9 10 11 12 13 14 15 16 17 18 19 20 21 22 23 24 25 26 27 28 29 30 31 32 33 34 35 36 37 38 39 40 41 42 43 44 45 46 47 48 49 50

424
ASUS43 KMPX 250910
RWRMN
WEATHER ROUNDUP FOR MINNESOTA
NATIONAL WEATHER SERVICE TWIN CITIES/CHANHASSEN MN
400 AM CDT TUE APR 25 2017


NOTE: "FAIR" INDICATES FEW OR NO CLOUDS BELOW 12,000 FEET WITH NO
SIGNIFICANT WEATHER AND/OR OBSTRUCTIONS TO VISIBILITY. N/A MEANS
CURRENT SKY AND/OR WEATHER CONDITIONS ARE NOT AVAILABLE.

MNZ060>063-068>070-251000-
   Twin Cities Metro

CITY           SKY/WX    TMP DP  RH WIND       PRES   REMARKS
TWIN CITIES    CLOUDY    61  35  37 S8        29.49S
ST PAUL        CLOUDY    59  39  47 S9        29.49F
CRYSTAL        CLOUDY    60  35  39 SE8       29.47F
BLAINE         CLOUDY    63  37  39 SE8       29.48F
LAKEVILLE      CLOUDY    57  36  44 S7        29.48F
EDEN PRAIRIE   CLOUDY    60  38  43 S6        29.47F
SOUTH ST PAUL  CLOUDY    61  33  35 SE5       29.49F
LAKE ELMO      CLOUDY    61  34  36 SE7       29.51F
$$
MNZ001>005-007-008-013>017-022>024-027-028-251000-
   Northwest Minnesota

CITY           SKY/WX    TMP DP  RH WIND       PRES   REMARKS
BEMIDJI        CLOUDY    38  37  98 N9        29.58S
HALLOCK        CLOUDY    30  28  93 N17       29.75R WCI  18
ROSEAU         CLOUDY    30  27  86 N15       29.71R WCI  19
WARROAD        CLOUDY    32  28  86 N14G20    29.71R WCI  22
THIEF RVR FALL CLOUDY    31  30  96 N16       29.68R FOG     WCI  20
CROOKSTON      CLOUDY    32  30  93 N20       29.70R WCI  20
FOSSTON        CLOUDY    34  34 100 N17       29.63R FOG     WCI  23
DETROIT LAKES  FOG       36  36 100 N18       29.59R VSB 1
MOORHEAD       CLOUDY    34  30  86 N24G30    29.65R WCI  21
PARK RAPIDS    CLOUDY    43  38  82 N10       29.55R
MAHNOMEN       CLOUDY    35  35  99 N15G23    29.60S FOG     WCI  25
$$
MNZ006-009>011-018-025>026-251000-
   North Central Minnesota

CITY           SKY/WX    TMP DP  RH WIND       PRES   REMARKS
BAUDETTE       CLOUDY    33  31  92 N12       29.66R WCI  24
FLAG ISLAND    DRIZZLE   30  28  93 NE16      29.71R WCI  19
INTL FALLS     LGT RAIN  36  34  92 N7        29.64R FOG
WASKISH        DRIZZLE   36  34  93 NE9       29.63S
BIG FORK       CLOUDY    37  36  93 N5        29.59S
LONGVILLE      CLOUDY    39  37  93 NE3       29.55S
GRAND RAPIDS   CLOUDY    38  35  89 E3        29.58S
CRANE LAKE     DRIZZLE   36  34  93 CALM      29.64R
ORR            CLOUDY    36  34  93 CALM      29.58S
COOK           DRIZZLE   36  36 100 NE3       29.59S
WALKER         CLOUDY    38  37  93 N7        29.57R
$$
MNZ012-019>021-037-251000-
   Northeast Minnesota

CITY           SKY/WX    TMP DP  RH WIND       PRES   REMARKS
DULUTH         LGT RAIN  39  36  89 E10       29.58F
ELY            LGT RAIN  37  36  93 CALM      29.59F
HIBBING        CLOUDY    37  36  96 CALM      29.57F
EVELETH        LGT RAIN  37  35  92 NE5       29.59F
DULUTH HARBOR  LGT RAIN  37  37 100 NE17      29.62F
TWO HARBORS    CLOUDY    45  39  81 NE3       29.60S
SILVER BAY     CLOUDY    43  37  81 NE8       29.61F
GRAND MARAIS     N/A     42  36  79 NE5       29.64S
G MARAIS ARPRT CLOUDY    36  28  75 NE8       29.64F
$$
MNZ029>031-032-039>041-046>048-054>057-064-251000-
   West Central Minnesota

CITY           SKY/WX    TMP DP  RH WIND       PRES   REMARKS
FERGUS FALLS   CLOUDY    36  36 100 N20G28    29.58S FOG
WHEATON        CLOUDY    36  34  93 NW18G25   29.63R FOG
MORRIS         CLOUDY    37  36  93 NW23G29   29.55S FOG
ALEXANDRIA     CLOUDY    44  43  96 NW12      29.52F FOG
ELBOW LAKE     FOG       37  37 100 NW16G23   29.57R VSB 1/2
WADENA         CLOUDY    43  41  93 N7        29.53R
GLENWOOD       FOG       43  41  93 NW13      29.52S VSB 1/2
APPLETON       CLOUDY    37  36  93 NW18      29.57R FOG
BENSON         CLOUDY    41  36  81 N18       29.56R HAZE
ORTONVILLE     CLOUDY    36  34  93 NW20      29.60R FOG
MADISON        CLOUDY    41  41 100 NW16G22   29.60R FOG
WILLMAR        CLOUDY    43  41  93 NW15      29.53S FOG
$$
MNZ033>034-036-042>043-049>051-058-059-251000-
   Central Minnesota

CITY           SKY/WX    TMP DP  RH WIND       PRES   REMARKS
ST CLOUD       MOCLDY    54  45  71 E7        29.47F
SAUK CENTRE    CLOUDY    46  46  99 NW6       29.50S FOG
PAYNESVILLE    CLOUDY    44  44 100 NW8       29.50S FOG
AITKIN         CLOUDY    41  36  81 NE5       29.52F
PINE RIVER     CLOUDY    39  39 100 N5        29.58S
BRAINERD       CLOUDY    42  40  92 N7        29.52S
STAPLES        CLOUDY    43  39  87 NE7       29.52S
LONG PRAIRIE   CLOUDY    46  45  93 NW7       29.50S
LITTLE FALLS   CLOUDY    50  43  76 NE5       29.49F
LITCHFIELD     PTCLDY    48  46  93 NW10      29.49S
BUFFALO        MOCLDY    58  37  45 SE5       29.48S
MAPLE LAKE     MOCLDY    52  47  83 CALM      29.48F
HUTCHINSON     CLOUDY    47  46  97 W12       29.50S FOG
$$
MNZ037-044-045-052-053-251000-
   East Central Minnesota

CITY           SKY/WX    TMP DP  RH WIND       PRES   REMARKS
PRINCETON      CLOUDY    55  45  67 CALM      29.49S
MORA           CLOUDY    43  36  75 NE6       29.53S
CAMBRIDGE      CLOUDY    57  45  62 NE6       29.47F
RUSH CITY      CLOUDY    48  42  80 N5        29.51S
MOOSE LAKE     CLOUDY    36  34  93 NE6       29.54F
HINCKLEY       CLOUDY    41  36  81 NE9       29.52F
CLOQUET        LGT RAIN  37  36  93 E7        29.57F
MCGREGOR       CLOUDY    37  36  93 E7        29.54F
$$
MNZ071>073-080-081-089-090-097-098-251000-
   Southwest Minnesota

CITY           SKY/WX    TMP DP  RH WIND       PRES   REMARKS
MONTEVIDEO     CLOUDY    37  37 100 N15       29.56R FOG
GRANITE FALLS  CLOUDY    41  39  93 NW15      29.57R FOG
CANBY          CLOUDY    38  37  94 W15       29.61R
MARSHALL       CLOUDY    38  37  97 NW20      29.57R
REDWOOD FALLS  CLOUDY    41  38  89 NW12      29.53R
OLIVIA         CLOUDY    41  37  87 NW16G22   29.52S
PIPESTONE      CLOUDY    41  36  81 N10       29.55S
WINDOM         CLOUDY    41  39  93 NW13      29.53R
WORTHINGTON    CLOUDY    41  39  93 N13       29.54S
JACKSON        CLOUDY    43  41  93 NW13      29.52S
TRACY          CLOUDY    39  38  97 NW18G24   29.56R FOG
SLAYTON        CLOUDY    38  37  98 NW13      29.55S FOG
$$
MNZ065>067-074>077-082>085-091>093-251000-
   South Central Minnesota

CITY           SKY/WX    TMP DP  RH WIND       PRES   REMARKS
MANKATO        CLOUDY    57  40  52 W9        29.49F
NEW ULM        CLOUDY    45  43  93 NW15      29.51S
ST JAMES       CLOUDY    45  43  93 W14G21    29.53R
FAIRMONT       MOCLDY    48  44  86 NW14      29.51
GLENCOE        CLOUDY    51  49  92 W3        29.48S
FARIBAULT      CLOUDY    61  36  39 S8        29.50F
OWATONNA       CLOUDY    59  34  38 SE13G18   29.50F
WASECA         CLOUDY    55  36  47 SE9       29.50F
ALBERT LEA     CLOUDY    55  34  44 S7        29.51S
$$
MNZ078>079-086>088-094>096-251000-
   Southeast Minnesota

CITY           SKY/WX    TMP DP  RH WIND       PRES   REMARKS
ROCHESTER      CLOUDY    58  33  39 S16       29.54F
RED WING       CLOUDY    63  28  27 SE7       29.51F
DODGE CENTER   CLOUDY    57  34  41 S13       29.52F
WINONA         CLOUDY    61  32  33 S3        29.56F
AUSTIN         CLOUDY    57  34  41 S7        29.52F
PRESTON        CLOUDY    56  32  40 S8        29.57S
$$
ABBREVIATIONS USED IN REMARKS
   TC - TEMPERATURES IN CELSIUS
  WCI - WIND CHILL INDEX
   HX - HEAT INDEX
  VSB - VISIBILITY
$$




USA.gov is the U.S. government's official web portal to all federal, state and local government web resources and services.